Theta_e
287 286 286 285 285 285 284 283 283 283 283 283 283 283 283 282 282 282 282 282 282 282 282 282 283 283 283 282 282 282 282 281 281 282 281 281 281 281 280 280 280 281
285 285 285 285 285 284 283 284 283 283 283 283 283 282 282 282 282 282 282 282 282 282 282 282 282 282 282 282 282 282 281 281 280 281 281 280 280 280 280 280 279 279
285 284 284 284 283 283 283 283 283 283 282 282 282 282 282 282 281 282 282 282 281 281 281 281 281 281 281 281 282 281 281 281 280 280 280 280 280 280 279 279 279 279
284 284 284 283 283 282 282 282 282 282 282 281 282 282 282 281 281 281 281 281 281 281 281 281 281 281 281 280 281 281 280 280 280 279 279 279 279 279 279 279 278 278
283 283 283 283 283 282 282 282 281 281 281 282 281 281 281 281 281 281 280 280 281 280 280 280 280 280 280 280 280 279 279 279 279 279 279 278 278 278 278 278 277 277
283 283 283 282 282 282 281 282 281 281 281 281 281 281 281 281 280 280 280 280 280 280 279 279 279 279 279 279 279 279 279 278 278 278 278 278 277 278 277 277 277 276
282 282 282 282 281 282 282 281 281 282 281 282 281 281 280 280 280 280 280 280 279 280 279 279 279 278 278 278 278 278 278 278 278 278 277 277 277 276 277 277 277 276
282 282 282 281 281 281 281 281 281 281 281 281 281 280 280 280 280 279 279 279 279 279 279 279 279 278 278 278 278 277 277 277 277 277 277 276 276 276 276 276 276 275
282 281 281 281 281 281 281 280 280 280 280 280 280 279 280 280 279 279 279 279 279 279 279 278 278 278 278 278 278 277 277 277 277 277 277 276 276 276 276 276 275 275
281 281 280 280 280 280 280 280 280 280 280 280 280 279 279 279 279 279 279 279 278 278 278 278 278 277 277 277 277 277 277 277 277 277 276 276 276 276 275 275 275 275
281 280 280 280 280 280 280 280 280 280 280 280 279 279 279 279 278 278 278 278 278 278 277 277 277 277 277 277 277 277 277 277 277 276 276 276 276 276 276 275 275 275
280 280 280 280 280 280 279 279 280 279 279 279 279 279 278 278 278 278 278 278 278 278 278 277 277 277 277 277 277 277 277 277 277 276 276 276 275 275 276 275 275 275
280 280 280 280 280 279 279 279 279 279 279 279 279 279 278 278 278 278 278 278 278 277 277 277 276 277 277 277 277 276 277 276 276 276 276 275 275 275 275 275 275 275
281 281 281 281 280 279 279 279 279 279 279 279 279 278 278 278 277 277 277 277 277 277 277 277 276 276 276 276 276 276 276 276 276 275 275 275 275 275 275 274 275 275
282 281 281 281 280 279 279 279 279 279 279 278 278 278 278 278 278 277 277 277 277 277 276 276 276 276 276 276 276 276 276 276 276 276 276 275 274 274 274 274 274 275
282 282 281 281 280 279 279 279 279 278 278 278 278 278 278 278 277 277 277 276 276 276 276 276 276 276 277 278 278 276 276 277 277 276 276 276 275 274 274 274 274 274
282 281 281 280 280 280 279 279 279 278 278 278 278 278 277 277 277 277 276 276 276 276 276 276 276 276 279 281 281 280 277 276 276 276 276 275 275 274 274 274 274 274
281 281 280 280 280 279 279 279 279 278 278 278 277 277 277 277 276 277 276 276 276 276 276 276 276 278 280 282 283 282 280 276 276 276 275 275 275 275 275 275 274 273
282 281 280 280 280 280 279 278 278 278 278 277 277 277 276 276 277 276 276 276 276 275 275 275 275 279 281 283 283 283 282 278 276 276 275 275 275 275 274 274 274 273
281 281 281 281 281 280 279 278 278 278 278 278 277 276 276 276 276 276 276 276 275 275 275 275 275 278 282 283 284 284 283 280 275 276 275 275 275 274 274 274 273 273
282 281 281 281 280 279 278 278 278 278 277 277 277 277 276 276 276 276 276 275 275 275 275 274 274 279 282 283 284 284 284 283 275 275 275 275 275 274 274 274 274 273
282 281 281 280 279 278 278 278 277 277 277 277 276 277 276 276 276 275 275 275 275 274 274 274 274 279 281 283 284 285 285 282 275 274 274 274 274 274 274 274 274 274
282 281 280 279 279 278 278 278 278 277 277 277 276 276 276 275 275 275 275 275 274 273 273 273 272 277 281 283 284 285 284 280 275 274 274 273 274 274 274 274 274 274
282 281 280 279 279 278 278 279 279 278 277 276 276 275 275 275 275 275 274 273 273 272 272 272 272 274 280 282 283 284 284 280 276 275 274 273 273 274 274 273 273 273
281 281 281 280 279 279 279 278 278 277 277 275 276 276 276 275 273 273 272 272 272 272 273 272 272 273 278 281 283 284 284 281 278 275 274 274 273 273 274 273 273 274
281 281 281 280 279 279 278 278 278 276 275 275 275 275 275 274 273 273 272 271 271 270 271 272 272 272 274 280 282 283 284 282 280 277 275 275 274 274 274 274 274 273
Wind_Speed
7 6 7 8 8 7 8 9 7 8 8 7 7 6 6 5 5 6 5 5 6 6 6 6 6 7 6 6 6 7 6 7 6 4 6 6 6 7 6 7 5 5
8 7 5 6 6 5 5 6 9 9 9 8 6 6 5 6 5 6 6 7 6 6 6 6 6 7 7 6 6 7 6 6 8 3 6 7 6 7 7 7 7 5
8 8 8 10 9 10 9 8 7 7 8 8 7 6 6 5 7 5 6 6 6 6 5 6 7 6 6 6 6 6 6 7 7 5 5 6 4 6 6 6 5 5
9 9 10 9 9 11 9 9 7 6 6 7 8 7 6 6 6 7 6 6 7 6 6 6 6 6 6 6 6 5 6 6 6 6 6 4 3 5 5 5 6 5
10 10 8 8 8 9 9 10 10 8 9 8 8 7 8 8 8 7 7 6 7 7 6 7 6 6 6 6 5 6 5 6 5 5 6 6 4 4 4 5 6 6
7 8 9 11 10 10 9 10 11 10 10 9 9 8 8 8 8 8 8 8 7 7 7 7 7 6 6 6 5 5 6 6 6 6 6 6 5 3 3 5 6 6
11 10 10 8 10 10 11 9 8 8 8 8 8 8 8 8 8 8 8 8 8 8 8 8 8 7 6 6 5 6 5 6 7 6 7 5 5 6 4 5 5 6
10 7 8 8 10 9 11 9 9 8 9 8 8 8 8 8 9 8 7 8 8 8 8 8 8 7 7 6 6 7 6 5 6 7 7 6 6 6 6 4 5 6
9 9 9 10 10 9 10 9 8 8 8 9 8 8 7 7 8 8 8 8 7 7 8 8 8 8 7 7 7 8 8 7 6 7 8 8 8 7 7 5 6 5
8 7 9 8 10 7 10 9 8 7 7 7 8 8 8 7 7 8 8 8 8 8 8 8 8 8 7 6 7 8 8 9 8 7 7 7 7 8 7 7 7 6
8 7 7 8 7 6 8 8 8 8 7 9 8 8 8 8 7 7 8 8 8 9 9 8 9 9 8 8 7 7 8 8 8 7 7 7 7 7 7 8 7 7
9 8 8 8 7 6 7 7 6 7 7 6 7 9 8 7 8 8 8 8 8 8 8 8 8 8 8 8 8 7 7 7 7 7 7 7 7 7 8 7 7 7
10 10 9 9 8 8 6 6 6 5 5 6 6 7 8 9 8 8 7 7 7 7 9 9 9 8 8 8 8 8 8 8 7 7 7 5 6 7 7 7 7 7
8 8 9 9 8 8 8 7 7 7 7 6 7 8 8 9 9 9 8 7 7 8 7 8 8 8 8 8 8 8 8 8 7 7 7 6 6 6 7 7 7 7
8 7 7 9 9 9 9 9 9 8 7 7 7 6 6 7 7 7 9 8 7 7 8 7 8 8 7 8 8 8 7 8 9 8 9 8 6 6 6 6 6 6
8 8 9 9 9 10 10 9 9 9 9 8 7 5 6 6 6 7 7 8 9 8 7 7 7 6 8 15 13 10 8 7 7 8 9 8 7 6 6 6 6 6
9 9 10 11 9 9 9 9 8 7 8 7 7 7 7 8 7 8 8 7 8 8 9 7 6 7 14 16 17 16 9 7 8 7 9 7 7 7 8 8 6 6
10 11 11 11 10 11 10 9 9 9 9 8 8 8 7 7 7 8 7 7 6 7 8 7 7 10 17 18 18 18 13 8 7 7 7 7 7 8 7 7 8 7
11 12 11 11 10 9 9 9 9 9 9 9 10 8 8 9 9 9 9 7 8 9 9 8 7 13 17 18 18 18 18 11 5 7 6 8 8 8 8 7 7 6
11 11 10 10 9 9 9 9 10 10 9 8 7 7 9 8 7 10 9 10 10 10 9 7 7 11 17 19 19 19 18 14 9 10 9 9 9 8 7 7 7 7
11 11 11 9 9 9 9 9 10 8 9 8 9 10 11 11 11 11 10 8 9 7 8 8 8 13 17 18 18 19 19 15 8 8 8 9 9 8 8 7 8 7
11 10 9 9 9 9 10 10 10 11 11 9 9 8 6 5 5 5 7 8 8 8 9 9 7 14 17 18 19 19 20 9 7 7 8 7 7 8 8 7 8 9
11 11 10 10 11 11 12 11 11 10 8 7 8 8 8 8 9 9 8 9 8 8 8 8 7 13 17 18 18 19 15 6 8 6 6 7 8 7 6 7 7 9
12 12 12 12 11 12 12 10 9 6 8 8 10 9 9 10 8 7 5 6 8 9 9 9 9 11 16 17 18 19 15 8 6 7 8 6 5 6 5 6 8 12
10 11 11 11 12 11 10 10 10 10 8 7 7 7 8 5 6 7 6 6 7 9 10 10 8 8 15 16 18 19 15 8 6 5 6 7 5 5 5 7 7 10
9 11 10 11 11 9 8 9 7 6 7 8 7 7 6 6 7 7 8 8 6 7 8 9 8 6 9 17 17 19 20 10 5 6 8 8 6 9 10 9 10 9
Wind_Direction
158 171 164 162 162 162 155 153 158 153 148 153 152 153 151 136 133 120 117 115 109 110 118 123 128 119 110 106 105 98 92 96 90 88 91 97 100 110 110 115 103 108
166 165 154 131 127 131 135 147 152 157 151 150 146 141 134 133 131 131 130 121 113 114 123 123 112 107 106 102 102 103 104 107 103 95 108 103 114 113 114 119 117 119
160 160 162 162 157 151 147 140 148 149 148 143 136 142 136 136 132 128 125 123 122 122 118 112 105 99 102 104 110 110 118 117 112 118 110 116 128 120 119 121 115 118
169 171 164 159 153 150 150 146 149 145 140 144 155 147 142 140 136 132 128 130 126 124 121 114 110 110 109 114 116 107 110 101 111 120 113 108 109 115 122 118 115 114
170 164 164 156 150 149 152 158 159 160 161 150 138 148 145 146 144 141 139 137 135 131 130 123 117 116 121 119 124 119 118 119 123 125 122 120 125 125 131 131 131 128
166 172 164 161 159 157 165 171 165 160 156 155 158 150 152 148 148 146 147 144 147 140 135 130 125 124 126 123 128 126 133 130 134 131 125 128 137 138 143 144 139 137
171 168 169 165 159 167 166 168 162 162 164 154 142 159 152 153 152 150 150 148 146 150 145 141 135 132 131 133 132 133 129 127 133 137 134 138 141 146 157 155 150 140
177 170 163 162 165 171 172 165 164 167 158 150 161 151 159 153 151 147 149 153 152 151 145 138 134 131 139 142 143 138 136 140 144 146 145 148 156 159 165 169 154 141
164 164 164 168 170 175 174 166 165 163 160 159 157 153 155 158 151 152 156 156 153 151 143 139 141 143 146 151 154 152 150 156 158 156 158 161 168 173 168 161 157 151
167 160 166 170 178 179 175 167 163 158 157 157 152 153 155 155 153 154 155 160 153 152 148 143 146 148 152 163 163 161 158 161 165 170 171 175 171 169 169 171 166 155
161 160 168 177 186 179 176 161 163 158 164 163 155 160 160 150 155 159 159 162 163 159 154 154 155 154 159 165 169 170 166 162 168 172 179 183 180 176 174 171 169 171
157 160 176 181 180 172 174 169 161 166 164 162 165 157 157 164 158 166 170 167 163 161 156 154 157 161 166 168 167 163 164 168 169 174 179 180 180 181 179 179 173 171
164 169 170 174 172 163 152 157 165 163 169 169 173 167 164 164 169 165 171 165 161 158 162 161 162 165 169 171 168 165 168 168 169 176 182 182 186 183 181 181 179 171
166 164 170 167 157 150 157 159 160 168 177 176 177 177 177 174 170 171 162 163 163 167 162 159 162 168 174 173 171 169 168 171 172 174 179 185 184 188 185 185 183 178
156 162 158 150 154 155 160 166 168 173 176 177 183 180 182 175 160 157 158 162 165 166 162 168 173 182 176 171 166 175 173 170 175 182 187 189 185 185 189 187 188 186
163 160 162 159 160 167 170 167 170 169 172 172 181 183 174 168 162 163 165 168 165 169 172 175 185 182 184 184 183 177 170 171 173 185 190 188 179 181 191 199 195 189
164 165 153 167 170 170 171 170 167 168 173 174 176 181 181 177 174 171 176 176 177 174 178 185 182 178 184 187 188 185 175 167 173 179 188 182 186 187 195 198 198 192
170 166 172 179 175 178 174 175 170 172 177 177 177 181 182 172 186 187 179 182 181 184 190 189 186 189 189 191 190 186 180 175 170 177 179 187 194 199 204 199 195 191
170 173 177 176 180 174 171 169 174 177 179 178 185 181 164 183 193 185 192 187 187 190 195 194 197 196 194 192 193 190 185 174 172 179 182 193 198 204 206 202 193 188
172 173 177 179 175 174 170 173 176 185 183 180 166 161 182 191 194 197 194 195 196 198 197 195 194 195 195 195 195 194 191 180 183 190 197 200 201 203 206 203 194 190
174 176 178 175 171 166 169 177 181 178 176 177 177 183 187 193 193 196 199 197 199 197 198 202 204 197 199 198 197 196 197 186 179 191 197 205 209 204 206 198 200 203
174 175 172 165 165 168 174 181 181 185 185 181 181 190 197 189 202 194 195 197 197 195 198 209 204 202 204 202 201 200 198 188 170 187 198 203 203 203 202 198 199 206
173 170 169 169 172 175 184 185 184 188 185 167 178 189 189 194 198 198 198 194 192 194 199 210 207 210 209 208 205 202 199 178 171 184 198 203 212 200 194 195 200 204
174 172 173 175 175 184 185 188 187 180 179 173 182 185 194 200 196 195 193 190 191 199 199 205 212 210 212 212 209 206 203 191 179 184 202 206 208 200 192 203 206 205
173 175 176 175 181 187 182 181 182 184 177 170 188 186 197 180 180 192 196 199 202 204 201 207 213 207 212 215 213 212 209 201 185 189 199 214 195 206 201 206 215 213
173 176 177 177 181 177 176 185 170 151 162 175 187 186 183 184 188 194 198 206 199 203 209 210 210 207 208 217 218 217 216 209 197 190 216 214 209 216 222 225 224 223